This is the latest recevied weather packets stored in our database for station/object KJ5FA-10. If no packets are shown the sender has not sent any weather packets the latest 10 day(s).
| Time | Temp. | Humidity | Pressure | Rain* | Wind** | Luminosity | Snow |
|---|---|---|---|---|---|---|---|
| 1777693176 | 13.89° C | 63% | 1019.4 hPa | 0 mm | - | - | - |
| 1777691375 | 15° C | 61% | 1019 hPa | 0 mm | - | - | - |
| 1777690476 | 15° C | 63% | 1018.9 hPa | 0 mm | - | - | - |
| 1777689575 | 15° C | 63% | 1018.7 hPa | 0 mm | - | - | - |
| 1777687775 | 15.56° C | 65% | 1018.4 hPa | 0 mm | - | - | - |
| 1777686875 | 15.56° C | 64% | 1018.4 hPa | 0 mm | - | - | - |
| 1777685075 | 16.11° C | 65% | 1018.4 hPa | 0 mm | - | - | - |
| 1777684175 | 16.11° C | 62% | 1018.4 hPa | 0 mm | - | - | - |
| 1777683275 | 16.67° C | 61% | 1018.2 hPa | 0 mm | - | - | - |
| 1777682376 | 16.67° C | 60% | 1017.7 hPa | 0 mm | - | - | - |
| 1777681475 | 17.22° C | 60% | 1017.7 hPa | 0 mm | - | - | - |
| 1777680576 | 17.22° C | 58% | 1017.4 hPa | 0 mm | - | - | - |
| 1777679675 | 17.78° C | 56% | 1016.6 hPa | 0 mm | - | - | - |
| 1777678775 | 17.78° C | 55% | 1016 hPa | 0 mm | - | - | - |
| 1777677875 | 18.33° C | 54% | 1016 hPa | 0 mm | - | - | - |
| 1777676975 | 18.33° C | 53% | 1015.8 hPa | 0 mm | - | - | - |
| 1777676076 | 18.89° C | 50% | 1015.6 hPa | 0 mm | - | - | - |
| 1777674277 | 20° C | 41% | 1015.6 hPa | 0 mm | - | - | - |
| 1777673375 | 20.56° C | 42% | 1015.6 hPa | 0 mm | - | - | - |
| 1777672475 | 20.56° C | 41% | 1015.3 hPa | 0 mm | - | - | - |
| 1777671575 | 20.56° C | 41% | 1015.3 hPa | 0 mm | - | - | - |
| 1777670675 | 20° C | 40% | 1015.4 hPa | 0 mm | - | - | - |
| 1777669775 | 20° C | 40% | 1015.4 hPa | 0 mm | - | - | - |
| 1777668875 | 20.56° C | 42% | 1015.7 hPa | 0 mm | - | - | - |
| 1777667977 | 21.11° C | 41% | 1015.9 hPa | 0 mm | - | - | - |
* Rain latest hour (hover to see other rain measurements)
** Current wind speed in m/s (hover to see current wind gust speed)